Home   Weather   Sidney   Past weeks

Flag for Canada Past Weather in Sidney, British Columbia, Canada — Yesterday and Last 2 Weeks

Now
45 °F

Broken clouds.


Feels Like: 41 °F
Forecast: 44 / 57 °F
Wind: 6 mph from Northwest

Location: Victoria Int. Airportb. C.

Current Time: Apr 24, 2017 at 8:39:33 am

Latest Report: Apr 24, 2017 at 8:00 am


Visibility: 15 mi

Pressure: 29.75 "Hg

Humidity: 100%

Dew Point: 45 °F

Location of SidneyLocation

Past Weather in Sidney — Graph

°F

Sidney Temperature Yesterday

Maximum temperature yesterday: 54 °F (at 1:26 pm)
Minimum temperature yesterday: 46 °F (at 3:49 am)
Average temperature yesterday: 49 °F

High & Low Weather Summary for the Past Weeks

 TemperatureHumidityPressure
High61 °F (Apr 21, 4:00 pm)100% (Apr 11, 4:47 am)30.42 "Hg (Apr 11, 4:47 am)
Low36 °F (Apr 11, 4:47 am)48% (Apr 16, 5:00 pm)29.65 "Hg (Apr 13, 12:30 am)
Average49 °F80%29.96 "Hg
* Reported Apr 9 7:00 am — Apr 24 7:00 am, Sidney, Weather by CustomWeather, © 2017

Note: Actual official high and low records may vary slightly from our data, if they occured in-between our weather recording intervals... More about our weather records

Advertising

Sidney Weather History for the Previous 24 Hours

Scroll right to see more
 ConditionsComfort  
Time TempWeatherWind HumidityBarometerVisibility
7:00 am
Mon, Apr 24
45 °FLight rain. Partly sunny.7 mph100%29.74 "Hg15 mi
6:43 am45 °FLight rain. Partly sunny.5 mph100%29.74 "Hg10 mi
6:00 am45 °FLight rain. Overcast.6 mph100%29.73 "Hg10 mi
5:00 am46 °FLight rain. Overcast.3 mph93%29.74 "Hg10 mi
4:00 am46 °FOvercast.3 mph93%29.74 "Hg15 mi
3:00 am46 °FPartly cloudy.No wind100%29.74 "Hg15 mi
2:27 am46 °FMostly cloudy.2 mph93%29.75 "Hg10 mi
2:00 am46 °FPartly cloudy.2 mph100%29.75 "Hg15 mi
1:21 am46 °FOvercast.3 mph100%29.76 "Hg15 mi
1:00 am46 °FLight rain. Partly cloudy.2 mph100%29.76 "Hg15 mi
12:38 am48 °FLight rain. Mostly cloudy.2 mph94%29.76 "Hg15 mi
12:00 am48 °FPartly cloudy.2 mph94%29.77 "Hg20 mi
11:34 pm
Sun, Apr 23
48 °FOvercast.3 mph94%29.76 "Hg20 mi
11:00 pm48 °FLight rain. Mostly cloudy.3 mph94%29.77 "Hg20 mi
10:00 pm48 °FLight rain. Mostly cloudy.6 mph94%29.77 "Hg20 mi
9:48 pm48 °FPassing clouds.7 mph87%29.77 "Hg20 mi
9:00 pm48 °FLight rain. Passing clouds.3 mph94%29.76 "Hg20 mi
8:00 pm50 °FBroken clouds.8 mph88%29.75 "Hg30 mi
7:00 pm52 °FPartly sunny.7 mph82%29.75 "Hg30 mi
6:00 pm52 °FPartly sunny.10 mph77%29.77 "Hg30 mi
5:00 pm52 °FLight rain. Cloudy.13 mph82%29.78 "Hg30 mi
4:00 pm52 °FOvercast.16 mph77%29.78 "Hg30 mi
3:00 pm52 °FLight rain. Cloudy.13 mph77%29.80 "Hg30 mi
2:00 pm52 °FLight rain. Cloudy.12 mph82%29.82 "Hg20 mi
1:26 pm54 °FLight rain. Cloudy.12 mph77%29.82 "Hg30 mi
1:00 pm52 °FMostly cloudy.9 mph82%29.83 "Hg30 mi
12:00 pm52 °FBroken clouds.10 mph82%29.85 "Hg30 mi
11:00 am50 °FPartly sunny.7 mph94%29.86 "Hg30 mi
10:00 am50 °FBroken clouds.7 mph88%29.86 "Hg30 mi
9:00 am50 °FBroken clouds.6 mph88%29.87 "Hg30 mi
8:00 am48 °FBroken clouds.6 mph94%29.87 "Hg30 mi
Weather by CustomWeather, © 2017

See weather overviewHow to use our weather pages